Regional Weather Roundup
Issued by NWS

Home | Current Version | Previous Version | Text Only | Print | Product List | Glossary Off
Versions: 1 2 3 4 5 6 7 8 9 10 11 12 13 14 15 16 17 18 19 20 21 22 23 24 25 26 27 28 29 30 31 32 33 34 35 36 37 38 39 40 41 42 43 44 45 46 47 48 49 50

134
ASUS43 KLOT 252009
RWRIL

ILLINOIS REGIONAL WEATHER ROUNDUP
NATIONAL WEATHER SERVICE CHICAGO/ROMEOVILLE IL
300 PM CDT WED APR 25 2018

NOTE: "FAIR" INDICATES FEW OR NO CLOUDS BELOW 12,000 FEET WITH NO
SIGNIFICANT WEATHER AND/OR OBSTRUCTIONS TO VISIBILITY.

* THESE STATIONS ARE NOT UNDER NWS QUALITY CONTROL. THEY ALSO MAY NOT
  REPORT WEATHER SUCH AS PRECIPITATION OR FOG.

ILZ001-002-007-009-015-016-024-252100-
NORTHWEST ILLINOIS

CITY           SKY/WX    TMP DP  RH WIND       PRES   REMARKS
MOLINE         FAIR      64  29  26 VRB6      30.04F
STERLING*      FAIR      64  34  32 NE12G18   30.05F
SAVANNA*       FAIR      63  32  31 N5        30.05F
$$

ILZ003-004-008-010-011-017-018-252100-
NORTH CENTRAL ILLINOIS

CITY           SKY/WX    TMP DP  RH WIND       PRES   REMARKS
ROCKFORD       FAIR      61  31  32 N14G20    30.05F
FREEPORT*      FAIR      59  31  34 W6        30.07F
ROCHELLE*      FAIR      60  33  35 N3        30.04F
DE KALB*       FAIR      60  33  35 N8        30.04F
PERU*          FAIR      64  33  31 N9        30.03F
$$

ILZ005-006-012>014-019>023-252100-
NORTHEAST ILLINOIS

CITY           SKY/WX    TMP DP  RH WIND       PRES   REMARKS
CHICAGO-OHARE  FAIR      52  32  46 NE14      30.06F
CHICAGO-MIDWAY FAIR      52  32  46 NE15      30.07F
AURORA         FAIR      62  31  31 N16       30.03F
LANSING*       FAIR      49  33  54 N13G18    30.08F
JOLIET*        FAIR      60  36  40 N7G16     30.04F
WAUKEGAN       FAIR      46  33  60 NE13G22   30.08F
DUPAGE AIRPORT FAIR      57  33  40 E12G20    30.03F
KANKAKEE*      FAIR      57  32  39 NE13G23   30.05F
WHEELING       FAIR      48  32  53 NE13      30.10F
MORRIS*        FAIR      63  30  28 N7        30.02F
ROMEOVILLE*    FAIR      57  33  40 E12       30.04F
$$

LMZ740>746-252100-
SOUTHERN LAKE MICHIGAN

STATION/POSITION SKY/WX   TEMP    WIND        PRES    VSBY  WAVE
                          AIR SEA DIR/SP/G                  HT/PER
                          (F)     (DEG/KT/KT) (MB)    (MI)  (FT/S)
HARRISON CRIB              39      20/ 11/ 12   N/A
BURNHAM HARBOR             44      10/  8/ 11   N/A
CALUMET HARBOR             41      10/ 13/ 17 1018.4F
BURNS HARBOR               39      10/ 13/ 17 1019.3F
MICHIGAN CITY              40     340/ 17/ 18   N/A
ST. JOSEPH                 39 42  360/ 16/ 19 1019.2          5/ 6
$$

ILZ025>027-034>036-040-047-049-050-058-095>099-252100-
WEST-CENTRAL ILLINOIS

CITY           SKY/WX    TMP DP  RH WIND       PRES   REMARKS
QUINCY         CLOUDY    62  41  46 N8        30.05F
GALESBURG*     FAIR      65  38  37 NE3       30.06F
MACOMB*        CLOUDY    60  38  44 N9        30.07F
JACKSONVILLE*  MOSUNNY   63  43  46 NE7       30.03F
PITTSFIELD*    CLOUDY    65  47  52 NE6       30.04F
$$

ILZ028>032-037-038-041>044-048-051>054-059>061-252100-
CENTRAL ILLINOIS

CITY           SKY/WX    TMP DP  RH WIND       PRES   REMARKS
PONTIAC        FAIR      62  34  34 N10G17    30.03F
BLOOMINGTON    FAIR      63  38  39 N12       30.03F
DECATUR        FAIR      63  42  46 NE12G18   30.01F
PEORIA         FAIR      63  38  39 VRB7      30.04F
LACON*         FAIR      63  32  31 N6        30.03S
LINCOLN*       FAIR      64  42  44 N7        30.02F
SPRINGFIELD    FAIR      66  45  46 N8        30.03F
TAYLORVILLE    FAIR      64  45  50 NE8       30.02F
$$

ILZ033-039-045-046-055>057-062-063-252100-
EAST-CENTRAL ILLINOIS

CITY           SKY/WX    TMP DP  RH WIND       PRES   REMARKS
CHAMPAIGN      FAIR      64  40  41 N13       30.01F
DANVILLE*      FAIR      61  38  42 N13G21    29.98F
RANTOUL*       FAIR      62  39  42 NE13      30.02F
MATTOON        FAIR      64  47  53 N12       29.99F
PARIS*         FAIR      65  41  41 N7        30.00F
$$

ILZ079-100>102-252100-
SOUTHWEST ILLINOIS

CITY           SKY/WX    TMP DP  RH WIND       PRES   REMARKS
ALTON          CLOUDY    64  54  68 N6        30.01F
BELLEVILLE     CLOUDY    68  53  58 N5        29.98F
CAHOKIA*       CLOUDY    67  52  58 NW8       29.99F
SPARTA*        CLOUDY    68  56  67 NW3       30.00F
$$

ILZ064>066-069>071-074>076-080>082-084>086-088>090-092>094-252100-
SOUTH-CENTRAL ILLINOIS

CITY           SKY/WX    TMP DP  RH WIND       PRES   REMARKS
CARBONDALE     FAIR      70  51  51 CALM      29.97F
CAIRO*         FAIR      70  54  56 SW3       29.98F
EFFINGHAM*     FAIR      66  52  59 N7        30.01F
MARION         PTSUNNY   68  52  56 NE5       29.99F
MT. VERNON     PTSUNNY   69  50  50 CALM      29.98F
CENTRALIA*     CLOUDY    69  53  57 NW5       29.98S
SALEM*         PTSUNNY   70  52  54 NE8       29.99F
METROPOLIS*    FAIR      71  53  52 SW3       29.98F
$$

ILZ067-068-072-073-078-083-087-091-252100-
SOUTHEAST ILLINOIS

CITY           SKY/WX    TMP DP  RH WIND       PRES   REMARKS
LAWRENCEVILLE  FAIR      69  51  52 MISG      29.98F
FLORA*         FAIR      69  51  54 NE6       29.99F
FAIRFIELD*     FAIR      69  50  50 N3        29.97F
HARRISBURG*    FAIR      69  53  57 CALM      29.98F
ROBINSON*      PTSUNNY   65  53  63 NE8       30.00F
CARMI*         FAIR      69  53  55 N8        29.97F
$$

ABBREVIATIONS USED IN REMARKS
   TC - TEMPERATURE IN CELSIUS
  WCI - WIND CHILL INDEX
   HX - HEAT INDEX
  VSB - VISIBILITY
$$





USA.gov is the U.S. government's official web portal to all federal, state and local government web resources and services.